Location: Unspecified
(0.0000°N, 0.0000°E)
Time: 04:43:55
(UTC+02:00)

Palapa 6 Rocket - Visible Passes

Search period start: 23 May 2015 00:00
Search period end: 02 June 2015 00:00
Orbit: 485 x 1227 km, 22.7° (Epoch: 22 May)

Date Brightness Start Highest point End Pass type
(mag) Time Alt. Az. Time Alt. Az. Time Alt. Az.
23 May 5.4 20:19:35 10° NW 20:24:58 29° NNE 20:31:17 10° E visible
23 May 4.2 22:07:21 10° WNW 22:14:30 76° NNE 22:14:33 76° NNE visible
24 May 5.6 07:23:26 10° SSW 07:26:19 14° SSE 07:29:01 10° SE visible
24 May 4.1 21:54:15 10° WNW 22:01:12 85° NNE 22:02:07 71° E visible
24 May 6.8 23:43:54 10° W 23:44:06 11° W 23:44:06 11° W visible
25 May 5.5 07:09:34 10° SSW 07:13:22 17° SSE 07:16:49 10° SE visible
25 May 4.1 21:41:13 10° WNW 21:47:55 86° SSW 21:49:42 56° ESE visible
25 May 6.7 23:30:59 10° W 23:31:41 13° W 23:31:41 13° W visible
26 May 5.4 06:56:08 11° SSW 07:00:24 21° SSE 07:04:27 10° ESE visible
26 May 4.1 21:28:14 10° WNW 21:34:39 76° SSW 21:37:18 43° SE visible
26 May 6.5 23:18:06 10° W 23:19:16 15° WSW 23:19:16 15° WSW visible
27 May 5.2 06:43:45 15° SSW 06:47:23 25° SSE 06:51:57 10° ESE visible
27 May 4.2 21:15:18 10° WNW 21:21:26 66° SSW 21:24:54 32° SE visible
27 May 6.3 23:05:19 10° WSW 23:06:52 16° WSW 23:06:52 16° WSW visible
28 May 5.1 06:31:22 21° SSW 06:34:20 29° SSE 06:39:22 10° ESE visible
28 May 4.3 21:02:26 10° W 21:08:15 57° SSW 21:12:29 24° SE visible
28 May 6.2 22:52:35 10° WSW 22:54:28 17° SW 22:54:28 17° SW visible
29 May 5.0 06:18:58 27° SSW 06:21:14 34° SSE 06:26:42 10° E visible
29 May 4.4 20:49:37 10° W 20:55:06 48° SSW 21:00:05 17° SE visible
29 May 6.1 22:39:57 10° WSW 22:42:04 17° SW 22:42:04 17° SW visible
30 May 4.8 06:06:34 35° S 06:08:06 40° SSE 06:13:57 10° E visible
30 May 4.6 20:36:51 10° W 20:41:59 41° SSW 20:47:42 12° SE visible
30 May 6.0 22:27:24 10° WSW 22:29:40 16° SW 22:29:40 16° SW visible
31 May 4.6 05:54:09 44° S 05:54:55 46° SSE 06:01:08 10° E visible
31 May 4.7 20:24:09 10° W 20:28:55 34° SSW 20:34:40 10° SE visible
31 May 6.0 22:14:57 10° SW 22:17:15 15° SSW 22:17:15 15° SSW visible
01 Jun 4.5 05:41:43 53° SSE 05:41:43 53° SSE 05:48:15 10° E visible
01 Jun 4.3 07:24:03 10° WSW 07:31:06 58° NNW 07:36:51 10° NE visible
01 Jun 6.0 22:02:39 10° SW 22:04:49 14° SSW 22:04:49 14° SSW visible
